Weather History for Glencoe, MN

Change the Weather History Date:

Saturday, July 27, 2013

  Actual Average (KHCD) Record (KHCD)
Temperature  
Mean Temperature 56 °F -  
Max Temperature 67 °F 82 °F 95 °F (1964)
Min Temperature 46 °F 60 °F 6 °F (1997)
Degree Days  
Heating Degree Days 8    
Growing Degree Days 6 (Base 50)    
Moisture  
Dew Point 44 °F    
Average Humidity 61    
Maximum Humidity 86    
Minimum Humidity 39    
Precipitation  
Precipitation 0.00 in - - ()
Sea Level Pressure  
Sea Level Pressure 30.03 in    
Wind  
Wind Speed 7 mph (NW)    
Max Wind Speed 17 mph    
Max Gust Speed 25 mph    
Visibility 10 miles    
Events      
Averages and records for this station are not official NWS values.
T = Trace of Precipitation, MM = Missing Value Source: NWS Daily Summary

Daily Weather History Graph

Daily Weather History Graph

Search for Another Location

Airport:

Trip Planner

Search our weather history database for the weather conditions in past years. The results will help you decide how hot, cold, wet, or windy it might be!

Date:

Astronomy

Jul. 27, 2013 Rise Set
Actual Time 5:57 AM CDT 8:47 PM CDT
Civil Twilight 5:23 AM CDT 9:21 PM CDT
Nautical Twilight 4:39 AM CDT 10:05 PM CDT
Astronomical Twilight 3:48 AM CDT 10:55 PM CDT
Moon 11:17 PM CDT (7/27) 11:55 AM CDT (7/27)
Length of Visible Light 15h 58m
Length of Day
14h 50m
Waning Gibbous, 70% of the Moon is Illuminated
Jul 27
Waning Gibbous
Jul 29
Last Quarter
Aug 6
New
Aug 14
First Quarter
Aug 20
Full

Hourly Weather History & Observations

Time (CDT) Temp. Dew Point Humidity Pressure Visibility Wind Dir Wind Speed Gust Speed Precip Events Conditions
12:14 AM 52.7 °F 45.9 °F 78% 30.10 in 10.0 mi NW 4.6 mph - N/A   Clear
12:34 AM 52.9 °F 46.0 °F 78% 30.11 in 10.0 mi NW 3.5 mph - N/A   Mostly Cloudy
12:54 AM 52.0 °F 45.7 °F 79% 30.10 in 10.0 mi WNW 4.6 mph - N/A   Scattered Clouds
1:14 AM 51.6 °F 45.5 °F 80% 30.10 in 10.0 mi NW 4.6 mph - N/A   Scattered Clouds
1:34 AM 50.4 °F 45.5 °F 83% 30.10 in 10.0 mi NW 5.8 mph - N/A   Scattered Clouds
1:54 AM 50.9 °F 45.7 °F 82% 30.09 in 10.0 mi NW 5.8 mph - N/A   Clear
2:14 AM 50.5 °F 45.5 °F 83% 30.09 in 10.0 mi NW 5.8 mph - N/A   Clear
2:34 AM 50.5 °F 45.5 °F 83% 30.09 in 10.0 mi NNW 5.8 mph - N/A   Clear
2:54 AM 50.4 °F 45.0 °F 82% 30.09 in 10.0 mi NW 5.8 mph - N/A   Clear
3:14 AM 50.0 °F 44.8 °F 82% 30.09 in 10.0 mi NNW 5.8 mph - N/A   Clear
3:34 AM 49.5 °F 44.6 °F 83% 30.09 in 10.0 mi NNW 5.8 mph - N/A   Clear
3:54 AM 48.6 °F 44.1 °F 84% 30.09 in 10.0 mi NNW 3.5 mph - N/A   Clear
4:14 AM 48.2 °F 43.9 °F 85% 30.09 in 10.0 mi NNW 3.5 mph - N/A   Clear
4:34 AM 48.4 °F 44.1 °F 85% 30.09 in 10.0 mi NW 3.5 mph - N/A   Scattered Clouds
4:54 AM 48.4 °F 43.9 °F 84% 30.09 in 10.0 mi NW 3.5 mph - N/A   Scattered Clouds
5:14 AM 47.7 °F 43.7 °F 86% 30.09 in 10.0 mi NW 3.5 mph - N/A   Clear
5:34 AM 47.3 °F 43.2 °F 86% 30.10 in 10.0 mi NW 3.5 mph - N/A   Clear
5:54 AM 46.9 °F 42.8 °F 86% 30.09 in 10.0 mi WNW 4.6 mph - N/A   Scattered Clouds
6:14 AM 48.4 °F 43.9 °F 84% 30.10 in 10.0 mi NW 4.6 mph - N/A   Overcast
6:34 AM 49.5 °F 44.6 °F 83% 30.10 in 10.0 mi WNW 4.6 mph - N/A   Overcast
6:54 AM 50.4 °F 45.1 °F 82% 30.09 in 10.0 mi WNW 3.5 mph - N/A   Overcast
7:14 AM 50.9 °F 45.5 °F 82% 30.10 in 10.0 mi NW 5.8 mph - N/A   Overcast
7:34 AM 51.8 °F 45.5 °F 79% 30.09 in 10.0 mi WNW 5.8 mph - N/A   Overcast
7:54 AM 52.7 °F 45.7 °F 77% 30.09 in 10.0 mi WNW 6.9 mph - N/A   Overcast
8:14 AM 54.7 °F 45.5 °F 71% 30.09 in 10.0 mi NW 9.2 mph - N/A   Scattered Clouds
8:34 AM 55.6 °F 45.9 °F 70% 30.09 in 10.0 mi NW 9.2 mph - N/A   Clear
8:54 AM 57.2 °F 44.8 °F 63% 30.09 in 10.0 mi NW 11.5 mph - N/A   Clear
9:14 AM 58.1 °F 42.8 °F 57% 30.08 in 10.0 mi WNW 13.8 mph 17.3 mph N/A   Clear
9:34 AM 59.0 °F 43.0 °F 55% 30.08 in 10.0 mi WNW 16.1 mph 21.9 mph N/A   Clear
9:54 AM 60.1 °F 43.2 °F 54% 30.07 in 10.0 mi NW 12.7 mph 18.4 mph N/A   Clear
10:14 AM 61.5 °F 42.6 °F 50% 30.06 in 10.0 mi NNW 13.8 mph 19.6 mph N/A   Clear
10:34 AM 62.2 °F 41.9 °F 47% 30.05 in 10.0 mi NW 15.0 mph 21.9 mph N/A   Scattered Clouds
10:55 AM 62.6 °F 41.5 °F 46% 30.05 in 10.0 mi NW 16.1 mph 25.3 mph N/A   Mostly Cloudy
11:14 AM 62.8 °F 42.1 °F 47% 30.04 in 10.0 mi NW 11.5 mph 24.2 mph N/A   Mostly Cloudy
11:34 AM 62.6 °F 41.7 °F 46% 30.04 in 10.0 mi NNW 15.0 mph 24.2 mph N/A   Overcast
11:54 AM 62.1 °F 42.1 °F 48% 30.03 in 10.0 mi NW 15.0 mph 24.2 mph N/A   Overcast
12:14 PM 62.1 °F 42.1 °F 48% 30.03 in 10.0 mi NNW 10.4 mph - N/A   Overcast
12:34 PM 62.4 °F 41.5 °F 46% 30.03 in 10.0 mi NW 17.3 mph 23.0 mph N/A   Overcast
12:54 PM 62.6 °F 42.3 °F 47% 30.03 in 10.0 mi NW 13.8 mph 25.3 mph N/A   Overcast
1:14 PM 62.2 °F 41.4 °F 46% 30.02 in 10.0 mi NNW 11.5 mph 21.9 mph N/A   Overcast
1:34 PM 64.9 °F 43.2 °F 45% 30.02 in 10.0 mi NNW 12.7 mph 20.7 mph N/A   Mostly Cloudy
1:54 PM 64.9 °F 41.5 °F 42% 30.01 in 10.0 mi NW 13.8 mph 21.9 mph N/A   Mostly Cloudy
2:14 PM 63.0 °F 43.3 °F 49% 30.01 in 10.0 mi NE 5.8 mph 21.9 mph N/A   Overcast
2:34 PM 63.9 °F 43.0 °F 47% 30.01 in 10.0 mi North 6.9 mph - N/A   Mostly Cloudy
2:54 PM 65.7 °F 43.2 °F 44% 30.00 in 10.0 mi NNW 5.8 mph - N/A   Mostly Cloudy
3:14 PM 64.4 °F 40.8 °F 42% 30.00 in 10.0 mi NW 11.5 mph 16.1 mph N/A   Mostly Cloudy
3:34 PM 64.4 °F 41.0 °F 42% 30.00 in 10.0 mi NW 9.2 mph - N/A   Overcast
3:54 PM 64.2 °F 42.8 °F 46% 29.99 in 10.0 mi NW 6.9 mph - N/A   Overcast
4:14 PM 65.3 °F 42.6 °F 44% 29.99 in 10.0 mi WNW 10.4 mph - N/A   Overcast
4:34 PM 67.1 °F 41.9 °F 40% 29.98 in 10.0 mi WNW 15.0 mph 20.7 mph N/A   Overcast
4:54 PM 67.1 °F 41.4 °F 39% 29.97 in 10.0 mi WNW 10.4 mph 23.0 mph N/A   Mostly Cloudy
5:14 PM 65.8 °F 42.3 °F 42% 29.97 in 10.0 mi WNW 13.8 mph 19.6 mph N/A   Overcast
5:34 PM 67.1 °F 42.3 °F 40% 29.96 in 10.0 mi WNW 11.5 mph 16.1 mph N/A   Overcast
5:54 PM 65.8 °F 43.2 °F 44% 29.96 in 10.0 mi WNW 9.2 mph - N/A   Overcast
6:15 PM 65.1 °F 43.5 °F 45% 29.96 in 10.0 mi WNW 8.1 mph - N/A   Overcast
6:34 PM 64.6 °F 44.2 °F 48% 29.96 in 10.0 mi West 5.8 mph - N/A   Overcast
6:54 PM 64.4 °F 45.5 °F 50% 29.96 in 10.0 mi WNW 4.6 mph - N/A   Overcast
7:14 PM 63.9 °F 46.0 °F 52% 29.96 in 10.0 mi NW 4.6 mph - N/A   Overcast
7:34 PM 63.5 °F 46.2 °F 53% 29.96 in 10.0 mi NW 3.5 mph - N/A   Overcast
7:55 PM 62.6 °F 46.8 °F 56% 29.96 in 10.0 mi North 3.5 mph - N/A   Overcast
8:14 PM 62.6 °F 45.3 °F 53% 29.96 in 10.0 mi North 5.8 mph - N/A   Overcast
8:34 PM 61.9 °F 45.0 °F 54% 29.96 in 10.0 mi North 6.9 mph - N/A   Overcast
8:54 PM 61.7 °F 44.6 °F 53% 29.96 in 10.0 mi North 9.2 mph - N/A   Overcast
9:14 PM 61.2 °F 44.1 °F 53% 29.97 in 10.0 mi NNW 5.8 mph - N/A   Overcast
9:34 PM 60.4 °F 45.5 °F 58% 29.97 in 10.0 mi NNW 5.8 mph - N/A   Overcast
9:54 PM 60.4 °F 45.0 °F 57% 29.97 in 10.0 mi NW 5.8 mph - N/A   Overcast
10:14 PM 60.8 °F 43.3 °F 53% 29.98 in 10.0 mi NNW 10.4 mph 17.3 mph N/A   Overcast
10:34 PM 60.1 °F 42.4 °F 52% 29.98 in 10.0 mi NNW 10.4 mph - N/A   Overcast
10:54 PM 59.4 °F 43.0 °F 55% 29.98 in 10.0 mi NNW 8.1 mph - N/A   Overcast
11:14 PM 59.0 °F 42.8 °F 55% 29.98 in 10.0 mi North 10.4 mph - N/A   Overcast
11:34 PM 57.6 °F 40.8 °F 54% 29.99 in 10.0 mi North 12.7 mph 17.3 mph N/A   Mostly Cloudy
11:54 PM 56.5 °F 41.0 °F 56% 30.00 in 10.0 mi NNW 9.2 mph 16.1 mph N/A   Scattered Clouds